world map with OMH marked

OMH - Airport

This information may not be accurate or current and is not valid for navigation or flight planning. No warranty of fitness for any purpose is made or implied.

flag of Iran

Donate via PayPal

Additional information is available on the NEW Great Circle Mapper

Location
City:  Orumiyeh, Iran
Near (Alt.):Uromiyeh, Urmieh
ICAO / IATA:OITR / OMH

Details
Type:Airport (Aerodrome, Airfield)
Use:Public/Civil, Military
Latitude:37°40'05"N (37.668122)
Longitude:45°04'07"E (45.068703)
Datum:WGS 1984
Elevation:4343 ft (1324 m)
Runways:1
Longest:10658 × 148 ft (3249 × 45 m)

Time
Timezone:UTC+3:30 (DST+6:30)
Local Time:

Weather
METAR:OITR  271500Z 25004KT CAVOK 06/M05 Q1024 NOSIG
TAF:OITR  270520Z 2706/2812 26005MPS 7000 FEW030= TAF OIIE 270520Z 2706/2812 32005MPS CAVOK

Related Locations
Nearby:
Farthest:GMR: 11425 mi / 18387 km
Mangareva [Totegegie], Gambier Islands, PF

Find:

   beyond  
but within

Other Information
Maps:
Links:
Sources:

  


 


Great Circle Mapper   Great Circle Mapper
Great Circle Mapper FAQ   Great Circle Mapper FAQ
  Karl's Home Page
KLSē   KLSē Home
   GC on Facebook
Airlines of the World   Airlines of the World
Donate via PayPal


Copyright © 2004-2015, Karl L. Swartz. All rights reserved.
All trademarks mentioned herein belong to their respective owners.

Please see credits for attribution and copyright information.

Karl Swartz <karl@kls2.com>
  Powered by FreeBSD
Valid HTML 4.01!
Labeled with ICRA
hCard Microformat
Geo Microformat